Location: Newark
(25.1987°N, 100.3705°W)
Time: 04:07:31
(UTC+00:00)

LightSail 2 - Pass Details

Date: 18 April 2020
Orbit: 695 x 719 km, 24.0° (Epoch: 28 May)

Event Time Altitude Azimuth Distance (km) Brightness Sun altitude
Exits shadow 10:09:41 24° 144° (SE) 1,428 6.7 -27.5°
Drops below altitude 10° 10:11:58 10° 128° (SE) 2,156 7.9 -27.1°
Sets 10:14:29 0° 121° (ESE) 3,068 8.8 -26.6°
